Wetbulb
70.08 68.53 67.97 68.08 69.07 68.03 66.22 66.04 65.21 65.46 65.31 65.09 65.30 64.43 65.98 63.80 64.99 65.32 63.66 62.86 63.73 62.90
67.05 65.93 65.73 66.47 66.38 66.22 65.55 64.06 63.77 63.23 62.67 63.65 63.49 64.28 65.04 63.54 62.43 63.08 63.34 64.06 64.41 63.44
67.07 66.29 65.54 65.89 65.71 65.50 64.15 62.98 62.64 61.84 62.19 62.71 63.46 63.55 63.49 61.76 61.61 61.20 62.43 64.04 64.62 63.87
66.32 65.61 66.91 66.44 65.94 63.36 62.47 61.68 61.02 61.05 61.95 62.48 62.64 63.01 62.34 62.89 61.94 62.62 63.85 64.82 65.06 64.42
66.64 67.14 66.33 64.31 62.46 61.38 60.38 60.25 60.75 61.51 61.95 62.43 62.47 63.15 62.67 62.50 63.52 63.02 62.01 63.66 64.32 62.83
64.75 64.00 63.37 60.96 60.73 60.70 59.80 61.34 61.79 62.53 62.79 62.81 62.44 62.11 62.67 63.11 63.18 63.02 62.99 64.04 64.36 64.65
63.11 63.04 61.69 62.15 61.51 61.29 62.28 62.17 62.81 63.20 62.41 62.03 62.84 62.50 62.85 62.73 62.64 61.78 61.94 63.32 64.37 64.20
63.04 63.46 62.82 62.91 63.56 62.28 62.86 62.52 62.31 61.26 60.38 61.19 61.83 61.56 62.05 61.23 60.85 61.31 61.41 62.27 63.08 63.78
62.43 63.15 63.48 62.24 61.69 63.14 62.04 61.33 61.26 60.58 60.65 60.46 59.50 58.86 58.85 61.02 62.00 62.69 62.71 62.56 62.96 63.34
62.71 62.25 61.57 62.10 63.42 62.16 61.45 61.87 61.45 61.17 61.08 61.07 61.88 58.95 59.45 61.56 63.93 63.57 63.74 64.06 63.80 63.48
62.14 62.17 63.06 63.19 62.41 61.92 61.52 61.03 61.04 61.37 62.25 63.12 63.56 59.38 58.62 60.15 64.47 64.82 65.09 64.99 64.94 64.66
64.51 63.46 62.45 61.28 60.85 61.07 61.27 61.83 62.19 63.15 63.63 63.74 64.47 58.31 57.42 59.71 64.25 64.06 64.49 64.98 65.16 64.94
63.58 62.46 61.23 61.32 61.34 62.10 62.74 63.19 63.13 63.65 64.45 62.55 64.47 58.97 55.96 58.60 62.88 62.58 62.52 63.97 64.75 61.04
64.45 64.05 64.02 63.70 63.67 63.52 63.54 63.77 64.20 64.13 65.03 64.58 63.47 64.04 56.06 55.03 62.65 62.67 62.36 62.86 63.38 64.53
MSLP
1016.94 1017.76 1018.49 1019.22 1019.14 1018.61 1018.09 1018.80 1018.89 1019.59 1019.70 1019.82 1019.69 1019.26 1019.11 1019.52 1019.23 1019.82 1019.82 1019.56 1019.67 1019.64
1017.14 1017.08 1017.67 1018.08 1017.35 1018.60 1018.61 1019.06 1019.03 1019.86 1020.13 1020.17 1019.81 1019.54 1019.28 1019.52 1019.86 1020.21 1020.15 1019.86 1019.90 1019.74
1016.11 1016.31 1016.85 1016.92 1017.82 1017.62 1018.13 1019.02 1019.62 1020.23 1020.42 1020.10 1019.62 1019.68 1019.67 1019.81 1020.31 1020.37 1020.28 1020.06 1020.20 1020.07
1014.96 1015.67 1015.82 1016.48 1017.91 1017.61 1018.39 1018.99 1020.04 1020.32 1020.22 1020.09 1019.84 1019.89 1020.13 1020.31 1020.42 1020.47 1020.41 1020.33 1020.45 1020.51
1014.74 1015.20 1016.01 1016.44 1017.57 1018.06 1018.54 1019.07 1019.94 1020.28 1020.28 1020.17 1020.21 1020.34 1020.37 1020.35 1020.46 1020.60 1020.78 1020.65 1020.68 1020.84
1015.52 1015.57 1016.12 1016.98 1017.83 1018.53 1019.04 1019.39 1019.82 1020.17 1020.21 1019.94 1020.01 1020.14 1020.32 1020.56 1020.61 1020.78 1020.87 1020.66 1020.58 1020.69
1015.54 1015.89 1016.54 1017.28 1017.99 1018.55 1019.06 1019.49 1019.82 1019.90 1019.81 1019.76 1019.88 1020.21 1020.60 1020.71 1020.75 1021.01 1020.96 1020.95 1020.84 1020.70
1015.65 1015.96 1016.72 1017.30 1017.93 1018.42 1018.97 1019.32 1019.49 1019.58 1019.68 1019.77 1019.99 1020.11 1020.37 1020.56 1020.82 1020.99 1020.91 1021.01 1020.87 1020.66
1015.77 1016.45 1016.92 1017.53 1018.16 1018.59 1018.85 1018.98 1019.40 1019.53 1019.57 1019.66 1019.65 1019.97 1020.44 1020.63 1020.62 1020.88 1020.95 1020.64 1020.42 1020.50
1016.08 1016.61 1017.11 1017.55 1017.96 1018.22 1018.61 1018.90 1019.21 1019.18 1019.39 1019.54 1019.67 1020.13 1020.48 1020.68 1020.64 1020.39 1020.08 1020.16 1020.08 1020.11
1016.37 1016.79 1017.22 1017.56 1017.94 1018.34 1018.55 1018.76 1018.86 1019.19 1019.47 1019.54 1019.70 1020.10 1020.25 1020.25 1019.99 1019.78 1019.80 1019.69 1019.65 1019.64
1016.19 1016.73 1017.30 1017.64 1018.05 1018.28 1018.56 1018.83 1018.98 1019.05 1019.15 1019.18 1019.20 1019.42 1019.49 1019.85 1019.49 1019.24 1019.03 1018.94 1019.02 1019.06
1016.42 1016.88 1017.24 1017.61 1017.90 1018.16 1018.38 1018.35 1018.32 1018.41 1018.49 1018.58 1018.67 1018.84 1018.95 1019.18 1018.87 1018.59 1018.38 1018.32 1018.28 1018.42
1016.29 1016.60 1016.98 1017.32 1017.57 1017.69 1017.79 1017.81 1017.88 1017.86 1017.89 1018.08 1018.18 1018.17 1018.34 1018.52 1018.45 1017.96 1017.63 1017.45 1017.43 1017.60
Wind_Speed
13 8 7 7 4 1 5 3 5 1 2 4 4 4 5 4 6 5 5 6 5 3
12 12 9 6 4 4 3 2 5 4 3 4 4 5 7 6 7 5 5 7 6 5
12 9 8 9 12 9 7 5 5 5 4 4 5 5 5 5 4 5 4 5 5 4
13 12 10 7 2 7 7 7 6 4 4 4 4 4 4 4 6 5 5 5 7 7
7 8 7 9 8 8 7 7 6 6 5 5 5 5 5 5 5 6 6 7 6 4
9 8 10 9 9 8 8 8 8 8 8 7 6 5 5 5 6 5 5 5 6 6
9 10 10 10 10 9 8 8 8 7 6 6 6 6 6 5 5 4 4 4 3 4
11 11 10 9 8 7 7 6 5 5 5 6 6 6 6 5 5 4 4 5 5 5
10 10 9 8 7 8 7 7 6 6 6 6 4 7 5 4 5 5 5 5 5 5
9 9 8 8 8 8 8 7 6 6 6 6 5 7 8 9 7 6 5 6 6 6
9 9 9 9 8 8 7 6 6 6 7 7 7 9 10 9 8 7 9 9 9 8
10 10 10 9 9 8 8 8 8 7 8 8 7 9 9 8 8 8 8 8 9 9
10 11 11 11 10 9 8 8 6 7 7 7 8 7 8 7 6 7 7 7 9 10
10 10 10 9 8 8 7 6 7 7 7 7 8 8 9 9 7 7 6 7 6 6
Wind_Direction
97 79 59 24 5 131 79 61 113 177 245 216 208 145 124 130 118 112 109 93 89 108
118 122 103 131 13 15 113 129 111 155 160 185 139 127 124 112 113 109 108 97 98 103
141 117 146 162 180 164 139 141 149 162 161 144 129 115 103 103 113 121 123 130 128 128
161 160 174 168 206 119 133 136 165 164 153 143 121 122 125 134 150 148 140 134 136 125
127 139 139 116 127 128 128 135 161 164 163 156 157 160 166 166 151 148 141 143 136 126
138 124 116 114 127 136 142 153 159 170 175 165 156 147 154 164 159 161 160 156 161 145
130 131 126 135 139 142 152 159 171 175 167 162 160 161 162 162 158 169 168 177 174 177
136 124 130 133 137 137 154 164 165 157 151 152 164 173 171 177 183 195 193 204 217 219
125 135 140 131 148 161 160 154 162 167 168 170 188 134 195 216 198 207 217 220 218 236
136 140 141 154 165 166 168 162 177 173 182 193 203 183 214 217 228 232 238 246 249 248
151 157 166 168 172 171 171 180 179 189 200 206 209 205 220 225 245 245 245 247 250 253
166 162 169 174 177 177 181 189 194 199 206 219 229 206 228 220 235 241 251 253 253 250
167 171 177 180 181 185 197 199 205 213 221 231 252 208 214 204 249 252 259 255 256 232
178 179 182 180 185 194 204 218 222 236 230 231 233 244 220 206 245 255 261 268 268 260